{"data":{"norad_id":55817,"epoch":"2026-05-24T19:05:37.510656Z","epoch_age_seconds":88653,"freshness":"FRESH","line1":"1 55817U 23029X   26144.79557304  .00000022  00000+0  23372-4 0  9993","line2":"2 55817  87.9178 279.0929 0002326 102.0931 258.0463 13.20771317158065","mean_motion":13.20771317,"eccentricity":0.0002326,"inclination_deg":87.9178,"raan_deg":279.0929,"arg_perigee_deg":102.0931,"mean_anomaly_deg":258.0463,"bstar":2.3372e-5,"rev_number":15806,"period_min":109.02720111085,"perigee_km":1180.0168295749,"apogee_km":1183.5337007607,"semimajor_km":7559.9122651678,"source":"CELESTRAK","updated_at":"2026-05-25T13:38:22.694833Z"}}